Weather History for Paris Orly, France

Change the Weather History Date:

Sunday, November 25, 2012

  Actual Average Record
Temperature  
Mean Temperature 48 °F -  
Max Temperature 53 °F 44 °F 66 °F (2006)
Min Temperature 42 °F 35 °F 28 °F (2008)
Degree Days  
Heating Degree Days 18    
Moisture  
Dew Point 42 °F    
Average Humidity 73    
Maximum Humidity 93    
Minimum Humidity 56    
Precipitation  
Precipitation 0.00 in - - ()
Sea Level Pressure  
Sea Level Pressure 29.90 in    
Wind  
Wind Speed 14 mph ()    
Max Wind Speed 22 mph    
Max Gust Speed 36 mph    
Visibility 7.0 miles    
Events      
Averages and records for this station are not official NWS values.
T = Trace of Precipitation, MM = Missing Value Source: Averaged Metar Reports

Daily Weather History Graph

Daily Weather History Graph

Search for Another Location

Airport:

Trip Planner

Search our weather history database for the weather conditions in past years. The results will help you decide how hot, cold, wet, or windy it might be!

Date:

Astronomy

Nov. 25, 2012 Rise Set
Actual Time 8:14 AM CET 5:00 PM CET
Civil Twilight 7:38 AM CET 5:36 PM CET
Nautical Twilight 6:59 AM CET 6:15 PM CET
Astronomical Twilight 6:21 AM CET 6:52 PM CET
Moon 3:18 PM CET (11/25) 5:02 AM CET (11/25)
Length of Visible Light 9h 57m
Length of Day
8h 46m
Waxing Gibbous, 91% of the Moon is Illuminated
Nov 25
Waxing Gibbous
Nov 28
Full
Dec 6
Last Quarter
Dec 13
New
Dec 20
First Quarter

Hourly Weather History & Observations

Time (CET) Temp. Windchill Dew Point Humidity Pressure Visibility Wind Dir Wind Speed Gust Speed Precip Events Conditions
12:00 AM 57.2 °F - 46.4 °F 67% 29.71 in 6.2 mi SSW 20.7 mph - N/A   Mostly Cloudy
12:30 AM 57.2 °F - 46.4 °F 67% 29.71 in 6.2 mi SSW 19.6 mph 32.2 mph N/A   Mostly Cloudy
1:00 AM 56 °F - 47 °F 63% 29.74 in 12 mi SSW 21.9 mph - -   Overcast
1:00 AM 55.4 °F - 46.4 °F 72% 29.74 in 6.2 mi SSW 21.9 mph 35.7 mph N/A   Mostly Cloudy
1:30 AM 55.4 °F - 46.4 °F 72% 29.74 in 6.2 mi SSW 17.3 mph - N/A   Mostly Cloudy
2:00 AM 55.4 °F - 46.4 °F 72% 29.77 in 6.2 mi SW 21.9 mph 35.7 mph N/A   Mostly Cloudy
2:30 AM 55.4 °F - 46.4 °F 72% 29.77 in 6.2 mi SW 18.4 mph 31.1 mph N/A   Mostly Cloudy
3:00 AM 55.4 °F - 46.4 °F 72% 29.80 in 6.2 mi SW 19.6 mph 33.4 mph N/A   Mostly Cloudy
3:30 AM 55.4 °F - 46.4 °F 72% 29.80 in 6.2 mi SW 19.6 mph - N/A   Mostly Cloudy
4:00 AM 53.6 °F - 44.6 °F 72% 29.80 in 6.2 mi SW 19.6 mph 33.4 mph N/A   Mostly Cloudy
4:30 AM 53.6 °F - 44.6 °F 72% 29.83 in 6.2 mi SW 18.4 mph - N/A   Mostly Cloudy
5:00 AM 53.6 °F - 44.6 °F 72% 29.83 in 6.2 mi WSW 18.4 mph - N/A   Mostly Cloudy
5:30 AM 53.6 °F - 44.6 °F 72% 29.86 in 6.2 mi SW 17.3 mph 29.9 mph N/A   Mostly Cloudy
6:00 AM 51.8 °F - 44.6 °F 76% 29.86 in 6.2 mi WSW 17.3 mph - N/A   Mostly Cloudy
6:30 AM 51.8 °F - 42.8 °F 71% 29.89 in 6.2 mi WSW 13.8 mph - N/A   Mostly Cloudy
7:00 AM 52 °F - 42 °F 61% 29.92 in 12 mi WSW 15.0 mph - -   Mostly Cloudy
7:00 AM 51.8 °F - 42.8 °F 71% 29.89 in 6.2 mi WSW 15.0 mph - N/A   Mostly Cloudy
7:30 AM 50.0 °F - 42.8 °F 76% 29.92 in 6.2 mi WSW 16.1 mph - N/A   Scattered Clouds
8:00 AM 50.0 °F - 42.8 °F 76% 29.95 in 6.2 mi WSW 12.7 mph - N/A   Scattered Clouds
8:30 AM 48.2 °F - 41.0 °F 76% 29.95 in 6.2 mi WSW 13.8 mph - N/A   Scattered Clouds
9:00 AM 48.2 °F - 39.2 °F 71% 29.98 in 6.2 mi WSW 11.5 mph - N/A   Mostly Cloudy
9:30 AM 48.2 °F - 41.0 °F 76% 29.98 in - SW 10.4 mph - N/A   Clear
10:00 AM 48.2 °F - 41.0 °F 76% 30.01 in - SW 13.8 mph - N/A   Clear
10:30 AM 48.2 °F - 39.2 °F 71% 30.01 in - SW 13.8 mph - N/A   Clear
11:00 AM 50.0 °F - 41.0 °F 71% 30.01 in - SW 16.1 mph - N/A   Clear
11:30 AM 50.0 °F - 41.0 °F 71% 30.01 in 6.2 mi SW 12.7 mph - N/A   Mostly Cloudy
12:00 PM 50.0 °F - 41.0 °F 71% 30.01 in 6.2 mi SW 15.0 mph - N/A   Scattered Clouds
12:30 PM 51.8 °F - 41.0 °F 67% 29.98 in 6.2 mi SW 12.7 mph - N/A   Partly Cloudy
1:00 PM 52 °F - 41 °F 56% 30.01 in 19 mi SW 15.0 mph - -   Scattered Clouds
1:00 PM 51.8 °F - 41.0 °F 67% 29.98 in 6.2 mi SW 15.0 mph - N/A   Partly Cloudy
1:30 PM 51.8 °F - 41.0 °F 67% 29.98 in 6.2 mi SW 12.7 mph - N/A   Partly Cloudy
2:00 PM 51.8 °F - 41.0 °F 67% 29.98 in 6.2 mi SW 13.8 mph - N/A   Partly Cloudy
2:30 PM 53.6 °F - 41.0 °F 62% 29.98 in 6.2 mi SW 12.7 mph - N/A   Scattered Clouds
3:00 PM 51.8 °F - 42.8 °F 71% 29.95 in 6.2 mi SSW 12.7 mph - N/A   Scattered Clouds
3:30 PM 51.8 °F - 42.8 °F 71% 29.95 in 6.2 mi SW 12.7 mph - N/A   Scattered Clouds
4:00 PM 51.8 °F - 42.8 °F 71% 29.95 in 6.2 mi SSW 12.7 mph - N/A   Scattered Clouds
4:30 PM 51.8 °F - 42.8 °F 71% 29.95 in 6.2 mi SW 11.5 mph - N/A   Partly Cloudy
5:00 PM 50.0 °F - 42.8 °F 76% 29.95 in 6.2 mi SSW 11.5 mph - N/A   Partly Cloudy
5:30 PM 50.0 °F - 42.8 °F 76% 29.95 in - SSW 9.2 mph - N/A   Clear
6:00 PM 48.2 °F - 41.0 °F 76% 29.95 in - South 8.1 mph - N/A   Clear
6:30 PM 48.2 °F - 41.0 °F 76% 29.95 in - South 6.9 mph - N/A   Clear
7:00 PM 47 °F - 40 °F 70% 29.96 in 16 mi South 6.9 mph - -   Scattered Clouds
7:00 PM 48.2 °F - 41.0 °F 76% 29.95 in 6.2 mi South 6.9 mph - N/A   Partly Cloudy
7:30 PM 46.4 °F 42.9 °F 39.2 °F 76% 29.92 in 6.2 mi South 6.9 mph - N/A   Partly Cloudy
8:00 PM 46.4 °F 43.5 °F 39.2 °F 76% 29.92 in 6.2 mi SSE 5.8 mph - N/A   Partly Cloudy
8:30 PM 46.4 °F 42.9 °F 39.2 °F 76% 29.92 in 6.2 mi South 6.9 mph - N/A   Partly Cloudy
9:00 PM 44.6 °F 41.4 °F 41.0 °F 87% 29.89 in 6.2 mi South 5.8 mph - N/A   Partly Cloudy
9:30 PM 44.6 °F 41.4 °F 41.0 °F 87% 29.89 in 6.2 mi South 5.8 mph - N/A   Partly Cloudy
10:00 PM 44.6 °F 41.4 °F 41.0 °F 87% 29.89 in - SSE 5.8 mph - N/A   Clear
10:30 PM 42.8 °F 40.1 °F 39.2 °F 87% 29.86 in - SSE 4.6 mph - N/A   Clear
11:00 PM 42.8 °F 41.1 °F 41.0 °F 93% 29.86 in - Variable 3.5 mph - N/A   Clear
11:30 PM 42.8 °F 40.1 °F 39.2 °F 87% 29.86 in - South 4.6 mph - N/A   Clear